Hankey, South Africa

6:31 AM SAST on September 25, 2017 (GMT +0200)
Loerie | | Change Station

Elev 258 ft 33.88 °S, 25.04 °E | Updated 1 minute ago

Mostly Cloudy
Mostly Cloudy
53.8 °F
Feels Like 53.8 °F
N
0.0
Wind Variable Wind from WSW
Gusts 0.0 mph

Today
High -- | Low -- °F
--% Chance of Precip.
Yesterday
High -- | Low -- °F
Precip. -- in
Pressure 29.80 in
Visibility -9999.0 miles
Clouds
Dew Point 28 °F
Humidity 36%
Rainfall 0.00 in
Snow Depth Not available.
6:05 AM 6:19 PM
Waxing Crescent, 24% visible
METAR FAPE 250400Z 25015KT CAVOK 14/11 Q1009 NOSIG
Pressure 29.80 in
Visibility -9999.0 miles
Clouds
Dew Point 28 °F
Humidity 36%
Rainfall 0.00 in
Snow Depth Not available.
6:05 AM 6:19 PM
Waxing Crescent, 24% visible
METAR FAPE 250400Z 25015KT CAVOK 14/11 Q1009 NOSIG

Get Severe Weather Alerts

Thanks for signing up!

Be on the lookout for a verification email in your inbox.

You'll start receiving the daily forecast at 6 AM.

×

10-Day Weather Forecast

No radar image for this location.
×

Almanac

Astronomy

Sep. 25, 2017 Rise Set
Actual Time
Civil Twilight
Nautical Twilight
Astronomical Twilight
Moon
Length of Visible Light
Length of Day
Tomorrow will be .
, % of the Moon is Illuminated

Today's Extremes

Country Highs Country Lows

Community

WunderPhotos

Category 6

Welcome to Category 6. This is the collective home for Weather Underground's featured writeups by Dr. Jeff Masters (right), Bob Henson (left), Chris Burt, and other regular contributors.

Nearby

Air Quality

  Air Quality AQ Index Pollutant
Not available.

Snow Depth

Station Depth Elevation

Earthquake Activity

City Distance Mag. Time & Date
Minimum magnitude displayed is 2.5.

Coastal Water Temperatures

Place Temperature

Stations

Nearby Weather Stations

Station Location Temp. Windchill Dew Point Humidity Wind Precip. Elev Updated Type